[[{"header":{"parameterUnit":"m.s-1","parameterCategory":1,"la1":30.2991,"la2":30.254,"lo1":-89.0895,"lo2":-89.0444,"dy":0.0017,"dx":0.0017,"nx":28,"ny":28,"refTime":"2024-05-21T03:00:00:Z","depth":0,"parameterNumber":2,"parameterNumberName":"U-component_of_WINDS"},"data":[0,0,0,0,0,0,0,0,0,0,0,0,0,0,0,0,0,0,0,0,0,0,0,0,0,0,0,0,0,0,0,0,0,0,0,0,0,0,0,0,0,0,0,0,0,0,0,0,0,0,0,0,0,0,0,0,0,0,-5.1867,-5.1867,0,-5.1868,-5.1868,-5.1868,-5.1778,-5.1776,-5.1774,-5.1771,-5.1773,-5.1776,-5.1778,0,0,0,0,0,0,0,0,0,0,0,0,0,-5.179,-5.1792,-5.1867,-5.1867,-5.1867,-5.1868,-5.1868,-5.1868,-5.1779,-5.1776,-5.1773,-5.177,-5.1773,-5.1775,-5.1778,0,0,0,0,0,0,0,0,0,0,0,0,0,-5.1811,-5.1793,-5.1867,-5.1823,-5.1819,-5.1868,-5.1868,-5.1868,-5.1779,-5.1776,-5.1772,-5.1769,-5.1772,-5.1775,-5.1778,-5.1871,0,0,-5.1789,-5.179,0,0,0,0,0,0,0,0,-5.181,-5.1814,-5.1829,-5.1826,-5.1821,-5.1819,-5.1842,-5.1869,-5.178,-5.1794,-5.1771,-5.1767,-5.1792,-5.1793,-5.1801,-5.1871,-5.1871,-5.1789,-5.1791,-5.1793,-5.1794,0,0,0,0,0,0,0,-5.1808,-5.1813,-5.1868,-5.183,-5.1825,-5.1804,-5.1803,-5.1847,-5.1813,-5.1793,-5.1786,-5.1788,-5.1789,-5.1798,-5.1801,-5.1871,-5.1789,-5.1792,-5.1794,-5.1796,-5.2019,-5.2023,0,0,0,0,0,0,-5.1813,-5.1813,-5.1868,-5.1868,-5.1807,-5.1808,-5.1807,-5.1824,-5.1812,-5.1807,-5.1791,-5.1783,-5.1794,-5.1797,-5.18,-5.1908,-5.1793,-5.1796,-5.1798,-5.2015,-5.202,-5.2024,0,0,0,0,0,0,-5.1812,-5.1819,-5.1867,-5.1838,-5.1843,-5.1813,-5.1833,-5.1826,-5.1835,-5.1811,-5.1804,-5.1806,-5.1791,-5.1796,-5.1854,-5.1907,-5.1797,-5.18,-5.2011,-5.2017,-5.2022,-5.2125,0,0,0,0,0,0,-5.181,-5.1819,-5.1852,-5.184,-5.1845,-5.1921,-5.1836,-5.1828,-5.1841,-5.1831,-5.1824,-5.1819,-5.1789,-5.185,-5.1858,-5.191,-5.1803,-5.2006,-5.2013,-5.202,-5.2117,-5.2134,-5.2149,0,0,0,0,0,-5.1807,-5.1881,-5.1855,-5.1862,-5.1886,-5.1924,-5.1927,-5.1891,-5.1845,-5.188,-5.1865,-5.1819,-5.1901,-5.1857,-5.1865,-5.1919,-5.2002,-5.2011,-5.202,-5.211,-5.2131,-5.2148,0,0,0,0,0,0,-5.19,-5.1879,-5.1849,-5.1921,-5.1925,-5.1909,-5.195,-5.1914,-5.1931,-5.1921,-5.1876,-5.1875,-5.1942,-5.1936,-5.1887,-5.2009,-5.1944,-5.1955,-5.2009,-5.2029,-5.2044,-5.2043,-5.1806,0,0,0,0,0,-5.1929,-5.1961,-5.1941,-5.2006,-5.201,-5.1981,-5.1995,-5.1968,-5.197,-5.1971,-5.196,-5.1965,-5.1992,-5.2011,-5.2034,-5.2117,-5.2115,-5.2159,-5.2174,-5.2187,-5.2197,-5.2242,-5.2261,-5.2053,-5.2053,-5.2053,0,0,-5.1989,-5.1981,-5.2004,-5.2025,-5.2024,-5.2059,-5.1982,-5.2022,-5.2047,-5.1977,-5.2032,-5.2025,-5.2028,-5.21,-5.2131,-5.2097,-5.2254,-5.2199,-5.2209,-5.2211,-5.2253,-5.2273,-5.229,-5.2059,-5.2058,-5.2057,0,0,-5.2115,-5.2113,-5.2167,-5.217,-5.2171,-5.2151,-5.2165,-5.2155,-5.2148,-5.2203,-5.2151,-5.2182,-5.2229,-5.2233,-5.2242,-5.2375,-5.2333,-5.2384,-5.2465,-5.251,-5.2526,-5.254,-5.2588,-5.2605,-5.2394,-5.2394,-5.2394,0,-5.2189,-5.2238,-5.22,-5.2244,-5.2255,-5.2195,-5.2251,-5.2255,-5.2264,-5.2274,-5.2237,-5.2296,-5.2293,-5.2366,-5.2399,-5.2408,-5.2423,-5.2383,-5.2527,-5.2541,-5.2553,-5.2598,-5.2616,-5.24,-5.2399,-5.2399,-5.2398,0,-5.233,-5.2365,-5.2409,-5.242,-5.2437,-5.2487,-5.2457,-5.2479,-5.2451,-5.2437,-5.2494,-5.249,-5.2512,-5.2528,-5.25,-5.2598,-5.2577,-5.2534,-5.2467,-5.258,-5.2621,-5.2638,-5.2409,-5.2406,-5.2405,-5.2403,0,0,-5.251,-5.2502,-5.2519,-5.2524,-5.2523,-5.255,-5.2599,-5.2621,-5.2641,-5.2651,-5.269,-5.2733,-5.2695,-5.2705,-5.2678,-5.2717,-5.2824,-5.267,-5.2669,-5.2698,-5.2931,-5.2962,-5.2983,-5.2798,-5.2801,-5.2803,-5.2931,0,-5.2632,-5.2713,-5.2682,-5.2765,-5.2798,-5.2744,-5.2786,-5.2791,-5.278,-5.2807,-5.2795,-5.2826,-5.2772,-5.2778,-5.2815,-5.2803,-5.287,-5.2794,-5.2834,-5.2836,-5.2833,-5.3004,-5.3036,-5.3157,-5.2947,-5.295,-5.2952,0,-5.2784,-5.2801,-5.2888,-5.2884,-5.2896,-5.2935,-5.2954,-5.2981,-5.2986,-5.2975,-5.2989,-5.2954,-5.3003,-5.2938,-5.3005,-5.2954,-5.297,-5.2967,-5.2971,-5.2972,-5.2899,-5.3009,-5.3194,-5.3212,-5.2977,-5.2975,-5.2973,0,-5.2907,-5.2952,-5.301,-5.3016,-5.3012,-5.3041,-5.3041,-5.3043,-5.3059,-5.3077,-5.3087,-5.311,-5.3123,-5.3142,-5.3116,-5.3071,-5.3187,-5.312,-5.318,-5.3181,-5.3204,-5.3203,-5.3394,-5.3217,-5.3217,-5.3217,-5.3216,0,-5.3045,-5.31,-5.3065,-5.31,-5.3162,-5.3127,-5.3189,-5.3183,-5.3186,-5.3221,-5.3176,-5.321,-5.3174,-5.3205,-5.3185,-5.3244,-5.325,-5.3243,-5.3237,-5.3246,-5.3247,-5.3254,-5.3244,-5.3221,-5.322,-5.322,-5.3219,0,-5.3191,-5.3169,-5.3229,-5.3222,-5.3222,-5.3267,-5.3262,-5.3295,-5.3282,-5.3327,-5.3335,-5.3315,-5.3349,-5.3326,-5.336,-5.3347,-5.3424,-5.3407,-5.3422,-5.3417,-5.3478,-5.3472,-5.3678,-5.3704,-5.3513,-5.3515,-5.3516,0,-5.3279,-5.3321,-5.3319,-5.3339,-5.3342,-5.3375,-5.3392,-5.3361,-5.338,-5.3392,-5.3425,-5.3455,-5.3478,-5.3536,-5.3524,-5.3551,-5.3533,-5.3604,-5.3537,-5.3546,-5.3534,-5.3531,-5.3535,-5.3617,-5.3619,-5.3621,-5.3623,0,-5.3439,-5.3427,-5.3453,-5.3476,-5.3498,-5.3514,-5.3527,-5.3547,-5.3516,-5.3541,-5.3575,-5.3593,-5.3629,-5.3661,-5.3684,-5.3685,-5.3649,-5.3645,-5.366,-5.3668,-5.3675,-5.3672,-5.3458,-5.3639,-5.3637,-5.3636,-5.3635,-5.3635,-5.3558,-5.3593,-5.3598,-5.3629,-5.3636,-5.365,-5.3682,-5.3674,-5.3702,-5.3729,-5.371,-5.3751,-5.3759,-5.3786,-5.3793,-5.3826,-5.3797,-5.3819,-5.3824,-5.3829,-5.3838,-5.3672,-5.383,-5.3829,-5.3829,-5.3828,-5.3828,0,-5.3714,-5.3716,-5.3745,-5.3765,-5.3791,-5.3756,-5.377,-5.3793,-5.3831,-5.3841,-5.3865,-5.3906,-5.3938,-5.3931,-5.3959,-5.3987,-5.3972,-5.3995,-5.3992,-5.3993,-5.3862,-5.3846,-5.4008,-5.4008,-5.4007,-5.4007,-5.4007,-5.4007,-5.3798,-5.3856,-5.3846,-5.3907,-5.3909,-5.3949,-5.396,-5.3974,-5.3982,-5.403,-5.4056,-5.4051,-5.4055,-5.4084,-5.4112,-5.411,-5.4122,-5.4152,-5.4143,-5.402,-5.4002,-5.3985,-5.3969,-5.4155,-5.4155,-5.4271,-5.4272,-5.4273]},{"header":{"parameterUnit":"m.s-1","parameterCategory":1,"la1":30.2991,"la2":30.254,"lo1":-89.0895,"lo2":-89.0444,"dy":0.0017,"dx":0.0017,"nx":28,"ny":28,"refTime":"2024-05-21T03:00:00:Z","depth":0,"parameterNumber":3,"parameterNumberName":"V-component_of_WINDS"},"data":[0,0,0,0,0,0,0,0,0,0,0,0,0,0,0,0,0,0,0,0,0,0,0,0,0,0,0,0,0,0,0,0,0,0,0,0,0,0,0,0,0,0,0,0,0,0,0,0,0,0,0,0,0,0,0,0,0,0,1.5374,1.5374,0,1.5306,1.5305,1.5305,1.5314,1.5315,1.5316,1.5317,1.5242,1.5239,1.5236,0,0,0,0,0,0,0,0,0,0,0,0,0,1.5509,1.5507,1.5374,1.5374,1.5373,1.5306,1.5305,1.5304,1.5313,1.5315,1.5316,1.5317,1.5243,1.524,1.5236,0,0,0,0,0,0,0,0,0,0,0,0,0,1.5447,1.5506,1.5375,1.5369,1.5368,1.5306,1.5305,1.5304,1.5313,1.5315,1.5316,1.5318,1.5245,1.524,1.5236,1.5173,0,0,1.5222,1.522,0,0,0,0,0,0,0,0,1.545,1.5442,1.5371,1.537,1.5368,1.532,1.5326,1.526,1.5313,1.5334,1.5317,1.5319,1.5267,1.526,1.5244,1.517,1.5167,1.5221,1.5218,1.5217,1.5215,0,0,0,0,0,0,0,1.5455,1.5445,1.5347,1.537,1.5368,1.5369,1.5362,1.5313,1.5291,1.5332,1.5333,1.5325,1.5266,1.5248,1.5242,1.5166,1.5221,1.5217,1.5215,1.5213,1.5038,1.5037,0,0,0,0,0,0,1.5461,1.5448,1.5349,1.5345,1.5414,1.5366,1.5358,1.5334,1.5292,1.5287,1.5323,1.5325,1.5255,1.5247,1.5239,1.5164,1.5217,1.5212,1.521,1.504,1.5038,1.5036,0,0,0,0,0,0,1.5464,1.5452,1.5352,1.5397,1.5384,1.5361,1.5334,1.5332,1.5313,1.5285,1.5281,1.5309,1.5256,1.5246,1.519,1.5162,1.521,1.5206,1.5042,1.504,1.5037,1.5013,0,0,0,0,0,0,1.5468,1.5453,1.543,1.5396,1.5382,1.5305,1.5333,1.5329,1.5306,1.5308,1.5271,1.5266,1.5257,1.5197,1.5186,1.5156,1.5203,1.5045,1.5041,1.5038,1.5016,1.5009,1.5004,0,0,0,0,0,1.5472,1.5424,1.5428,1.5416,1.5352,1.5303,1.5295,1.5286,1.5304,1.528,1.5262,1.5267,1.5167,1.5191,1.5179,1.5147,1.5047,1.5042,1.5038,1.5019,1.5011,1.5004,0,0,0,0,0,0,1.5452,1.542,1.5424,1.5364,1.5337,1.5305,1.5274,1.5278,1.5244,1.5247,1.5236,1.5228,1.5172,1.5154,1.5182,1.5085,1.5109,1.5102,1.5099,1.5091,1.5085,1.509,1.5199,0,0,0,0,0,1.5442,1.5406,1.5378,1.5328,1.5314,1.5297,1.5275,1.5271,1.5242,1.523,1.5208,1.5178,1.514,1.5114,1.5078,1.5014,1.5006,1.4987,1.4981,1.4976,1.4969,1.4935,1.4926,1.5022,1.5022,1.5022,0,0,1.5417,1.5395,1.5373,1.5324,1.5302,1.5264,1.5287,1.5245,1.5217,1.5223,1.5169,1.5153,1.5119,1.5059,1.5032,1.5043,1.4941,1.497,1.4967,1.4963,1.4929,1.492,1.4912,1.5019,1.502,1.502,0,0,1.5355,1.5334,1.5291,1.5269,1.5237,1.5226,1.5216,1.5184,1.5174,1.5121,1.5125,1.509,1.5024,1.5,1.498,1.491,1.4914,1.4899,1.4866,1.4833,1.4825,1.4818,1.4793,1.4784,1.4893,1.4892,1.4892,0,1.5328,1.5273,1.5267,1.5226,1.5204,1.521,1.5165,1.5144,1.5101,1.5085,1.5099,1.5018,1.4996,1.4931,1.4914,1.4897,1.4884,1.4902,1.4827,1.482,1.4813,1.4789,1.478,1.4891,1.4891,1.4891,1.4891,0,1.5242,1.5203,1.5172,1.5132,1.5107,1.5064,1.5051,1.5026,1.5025,1.5013,1.4959,1.4933,1.4891,1.4876,1.4873,1.481,1.4818,1.483,1.4853,1.4803,1.478,1.4771,1.4888,1.4889,1.4889,1.489,0,0,1.5162,1.5122,1.511,1.5093,1.5059,1.5029,1.4986,1.4948,1.4926,1.4897,1.4861,1.4806,1.4817,1.4793,1.4789,1.4759,1.4706,1.4774,1.4773,1.4762,1.4635,1.4627,1.4616,1.4709,1.4708,1.4706,1.4638,0,1.5095,1.5022,1.5017,1.495,1.4914,1.4921,1.4884,1.4859,1.4846,1.4813,1.4799,1.4761,1.4778,1.4764,1.4736,1.4719,1.468,1.4724,1.4674,1.4672,1.4681,1.4604,1.4594,1.4531,1.4629,1.4628,1.4627,0,1.5007,1.4977,1.4908,1.488,1.4865,1.4832,1.4797,1.4766,1.4738,1.4731,1.4706,1.4705,1.4661,1.4688,1.4626,1.4656,1.4636,1.4625,1.4622,1.4616,1.4645,1.4595,1.4511,1.4501,1.4613,1.4614,1.4615,0,1.4956,1.4898,1.4849,1.4834,1.4801,1.4778,1.4762,1.4736,1.4714,1.4683,1.4668,1.4632,1.4611,1.4583,1.4573,1.4593,1.4512,1.4537,1.4504,1.4504,1.4485,1.4486,1.4395,1.4474,1.4474,1.4474,1.4474,0,1.4881,1.4838,1.4826,1.4795,1.4747,1.4742,1.4694,1.468,1.4657,1.4624,1.4627,1.4595,1.4584,1.455,1.4542,1.4493,1.4483,1.4476,1.4474,1.4475,1.4476,1.446,1.4464,1.4471,1.4472,1.4473,1.4473,0,1.4814,1.4805,1.4752,1.4726,1.4718,1.4684,1.4661,1.4631,1.4621,1.4579,1.4568,1.4551,1.4511,1.4499,1.4451,1.4446,1.4387,1.439,1.4397,1.4397,1.4364,1.4367,1.4259,1.4244,1.4333,1.4332,1.4332,0,1.4767,1.4734,1.4705,1.4684,1.4669,1.4634,1.4612,1.4606,1.4582,1.4549,1.4523,1.4485,1.4454,1.4391,1.4373,1.4336,1.4337,1.4302,1.4331,1.4334,1.4336,1.4338,1.4334,1.4296,1.4295,1.4294,1.4294,0,1.4684,1.4681,1.465,1.4617,1.4591,1.4564,1.4539,1.4521,1.4511,1.4484,1.4445,1.4422,1.4374,1.4335,1.4299,1.4282,1.4285,1.4285,1.4275,1.4275,1.4281,1.4277,1.4381,1.4287,1.4288,1.4288,1.4288,1.4289,1.4624,1.4596,1.4572,1.4537,1.4518,1.4495,1.4466,1.4453,1.4421,1.4382,1.4381,1.4338,1.4312,1.4263,1.4245,1.4211,1.4221,1.4207,1.4203,1.4199,1.4196,1.4288,1.4204,1.4204,1.4205,1.4205,1.4205,0,1.4541,1.4526,1.4495,1.446,1.4433,1.4441,1.4414,1.439,1.4353,1.4329,1.4299,1.4255,1.4218,1.4198,1.4162,1.4138,1.4139,1.4129,1.4129,1.4126,1.419,1.4202,1.4129,1.4129,1.4129,1.4129,1.4129,1.4129,1.4494,1.4447,1.4442,1.4385,1.437,1.433,1.4314,1.4292,1.4273,1.4223,1.4194,1.4182,1.4159,1.4121,1.4088,1.4083,1.4069,1.4057,1.4053,1.4113,1.4121,1.4128,1.414,1.4055,1.4055,1.3992,1.3991,1.3991]}]]